Вернуться в каталог

STARLINK-11373

АктивенСвязьVLEO
NORAD 61582·PAYLOAD·🇺🇸 United States

Запущен Oct 18, 2024 с Cape Canaveral Space Force Station

Loading…

Ближайшие Пролёты (ближайшие 24 часа)

TLE

СвежийSource: CelesTrak SupGP

Эпоха: Sep 15, 2026, 02:39 UTC

1 61582C 24187J   26258.11090278 -.00015725  00000+0 -12941-3 0  2584
2 61582  53.1563  82.7791 0001060  84.1784  33.9929 15.69738701    13

Отслеживайте STARLINK-11373 в реальном времени с AllMySat

Download on the App Store